Location: Table Mountain
(47.2500°N, 120.5778°W)
Time: 07:51:31
(UTC-08:00)

Envisat - Pass Details

Date: 10 October 2017
Orbit: 764 x 766 km, 98.2° (Epoch: 11 December)

Event Time Altitude Azimuth Distance (km) Brightness Sun altitude
Exits shadow 19:47:55 23° 105° (ESE) 1,579 4.0 -15.1°
Maximum altitude 19:50:00 32° 65° (ENE) 1,306 3.7 -15.5°
Drops below altitude 10° 19:54:27 10° 4° (N) 2,313 5.5 -16.2°
Sets 19:56:58 0° 355° (N) 3,244 6.4 -16.7°
